STARLINK-30323 (57634 NORAD) Tracking and Keplerian Element Data

This shows tracking and keplerian element data for the satellite.

Feedback or suggestion? Click here.




ElementValue
Catalog57634
NameSTARLINK-30323
Epoch Orbit2402
Epoch Day13.25002315
Epoch Year2024
RAAN34.6314
Inclination43.001
Eccentricity0.0002046
Argument of Perigee281.5027
Mean Anonmoly217.237
Mean Motion15.02547705
Decay Rate-0.00019584
L11 57634U 23122C 24013.25002315 -.00019584 00000+0 -14382-2 0 9991
L22 57634 43.0010 34.6314 0002046 281.5027 217.2370 15.02547705 24029



Live tracking and technical data element details for STARLINK-30323 (NORAD 57634). STARLINK-30323 can be tracked NOW for your location showing map with azimuth and elevation plus other details from your city location.







IsCatalogInMostPopularTable: catalog: 57634, numindb: 32
Update: records affected: 1



GetName: 57634 STARLINK-30323

Hit Count: updated at: Thu, 22 Feb 2024 01:59:26 GMT